Tracking 35237 objects as of 5-Sep-2026
HD Live streaming from Space Station
objects crossing your sky now

PSLV DEB


PSLV DEB is no longer on orbit


NORAD ID: 34222
Int'l Code: 2001-049PS
Launch date: October 22, 2001
Source: India (IND)
Launch site: SRIHARIKOTA (SRI)
Decay date: 2014-12-12

Note: This is SATELLITE DEBRIS
Your satellite tracking list
Your tracking list is empty




NASA's NSSDC Master Catalog

Two Line Element Set (TLE):
1 34222U 01049PS  14345.94709388  .01893088  31249-2  19755-2 0  9999
2 34222 097.5956 341.3038 0005548 091.9246 268.2673 16.11282639639978
Source of the keplerian elements: AFSPC